| time (UTC) | temp C | wind direction | speed KPH | gust KPH | rain 1hr cm | rain 24hr cm | rain mn cm | humidity % | barometer mb |
| 20260504042558 | 6 | 329 | 1.6 | 8.0 | 0.00 | 0.20 | 0.00 | 99 | 1004.2 |
| 20260504041557 | 6 | 328 | 1.6 | 4.8 | 0.00 | 0.20 | 0.00 | 99 | 1004.5 |
| 20260504040557 | 6 | 326 | 1.6 | 4.8 | 0.05 | 0.20 | 0.00 | 99 | 1004.8 |
| 20260504035558 | 7 | 313 | 1.6 | 6.4 | 0.08 | 0.20 | 0.20 | 99 | 1004.7 |
| 20260504034557 | 7 | 322 | 1.6 | 4.8 | 0.10 | 0.20 | 0.20 | 99 | 1004.7 |
| 20260504033557 | 7 | 332 | 1.6 | 6.4 | 0.13 | 0.20 | 0.20 | 99 | 1004.9 |
| 20260504032557 | 7 | 355 | 1.6 | 6.4 | 0.13 | 0.20 | 0.20 | 99 | 1005.0 |
| 20260504031557 | 7 | 327 | 1.6 | 6.4 | 0.15 | 0.20 | 0.20 | 99 | 1005.2 |
| 20260504030557 | 7 | 297 | 3.2 | 9.7 | 0.10 | 0.15 | 0.15 | 99 | 1005.4 |
| 20260504025557 | 7 | 293 | 3.2 | 12.9 | 0.08 | 0.13 | 0.13 | 99 | 1005.4 |
| 20260504024558 | 7 | 274 | 4.8 | 12.9 | 0.05 | 0.10 | 0.08 | 99 | 1005.0 |
| 20260504023558 | 7 | 270 | 1.6 | 12.9 | 0.05 | 0.08 | 0.08 | 99 | 1005.2 |
| 20260504022602 | 7 | 259 | 3.2 | 12.9 | 0.05 | 0.08 | 0.08 | 1005.0 | |
| 20260504022557 | 7 | 259 | 3.2 | 12.9 | 0.05 | 0.08 | 0.08 | 99 | 1005.0 |
| 20260504021559 | 7 | 304 | 3.2 | 9.7 | 0.03 | 0.05 | 0.05 | 99 | 1005.4 |
| 20260504020559 | 7 | 286 | 1.6 | 9.7 | 0.05 | 0.05 | 0.05 | 99 | 1005.1 |
| 20260504015557 | 7 | 200 | 1.6 | 8.0 | 0.05 | 0.05 | 0.05 | 99 | 1005.0 |
| 20260504014558 | 7 | 221 | 1.6 | 6.4 | 0.05 | 0.05 | 0.03 | 98 | 1005.2 |
| 20260504013558 | 7 | 235 | 1.6 | 8.0 | 0.03 | 0.03 | 0.03 | 96 | 1005.4 |
| 20260504012558 | 6 | 276 | 1.6 | 9.7 | 0.03 | 0.03 | 0.03 | 96 | 1005.3 |
| 20260504011558 | 6 | 295 | 3.2 | 16.1 | 0.03 | 0.03 | 0.03 | 95 | 1005.2 |
| 20260504010559 | 7 | 267 | 4.8 | 16.1 | 0.00 | 0.00 | 0.00 | 91 | 1005.3 |
| 20260504005557 | 7 | 307 | 3.2 | 16.1 | 0.00 | 0.00 | 0.00 | 84 | 1005.4 |
| 20260504004558 | 6 | 207 | 1.6 | 6.4 | 0.00 | 0.00 | 0.00 | 80 | 1005.4 |
| 20260504003558 | 6 | 206 | 1.6 | 8.0 | 0.00 | 0.00 | 0.00 | 77 | 1005.1 |
| 20260504002557 | 7 | 325 | 1.6 | 8.0 | 0.00 | 0.00 | 0.00 | 74 | 1005.3 |
| 20260504001559 | 7 | 171 | 1.6 | 6.4 | 0.00 | 0.00 | 0.00 | 72 | 1005.3 |
| 20260504000559 | 7 | 11 | 1.6 | 4.8 | 0.00 | 0.00 | 0.00 | 70 | 1005.2 |
| 20260503235557 | 7 | 10 | 1.6 | 6.4 | 0.00 | 0.00 | 0.00 | 70 | 1005.3 |
| 20260503234557 | 7 | 326 | 1.6 | 6.4 | 0.00 | 0.00 | 0.00 | 69 | 1005.3 |
| 20260503233558 | 7 | 244 | 1.6 | 8.0 | 0.00 | 0.00 | 0.00 | 67 | 1005.2 |
| 20260503232558 | 7 | 333 | 1.6 | 6.4 | 0.00 | 0.00 | 0.00 | 69 | 1005.2 |
| 20260503231558 | 7 | 44 | 0.0 | 6.4 | 0.00 | 0.00 | 0.00 | 68 | 1005.2 |
| 20260503230558 | 7 | 84 | 1.6 | 4.8 | 0.00 | 0.00 | 0.00 | 68 | 1005.2 |
| 20260503225558 | 8 | 127 | 1.6 | 6.4 | 0.00 | 0.00 | 0.00 | 66 | 1005.1 |
| 20260503224559 | 8 | 98 | 1.6 | 6.4 | 0.00 | 0.00 | 0.00 | 65 | 1005.2 |
| 20260503223558 | 8 | 46 | 1.6 | 4.8 | 0.00 | 0.00 | 0.00 | 63 | 1005.2 |
| 20260503222557 | 8 | 10 | 1.6 | 6.4 | 0.00 | 0.00 | 0.00 | 65 | 1005.2 |
| 20260503221557 | 8 | 102 | 1.6 | 4.8 | 0.00 | 0.00 | 0.00 | 67 | 1005.2 |
| 20260503220558 | 8 | 173 | 1.6 | 8.0 | 0.00 | 0.00 | 0.00 | 68 | 1005.5 |
| 20260503215610 | 8 | 257 | 1.6 | 8.0 | 0.00 | 0.00 | 0.00 | 65 | 1005.5 |
| 20260503215557 | 8 | 257 | 1.6 | 8.0 | 0.00 | 0.00 | 0.00 | 65 | 1005.5 |
| 20260503214559 | 10 | 302 | 1.6 | 6.4 | 0.00 | 0.00 | 0.00 | 55 | 1005.4 |
| 20260503213557 | 10 | 295 | 3.2 | 11.3 | 0.00 | 0.00 | 0.00 | 54 | 1005.4 |
| 20260503212557 | 10 | 262 | 3.2 | 11.3 | 0.00 | 0.00 | 0.00 | 47 | 1005.3 |
| 20260503211558 | 11 | 262 | 1.6 | 12.9 | 0.00 | 0.00 | 0.00 | 52 | 1005.4 |
| 20260503210557 | 10 | 297 | 1.6 | 8.0 | 0.00 | 0.00 | 0.00 | 50 | 1005.5 |
| 20260503205557 | 11 | 299 | 3.2 | 8.0 | 0.00 | 0.00 | 0.00 | 52 | 1005.5 |
| 20260503204557 | 11 | 303 | 3.2 | 9.7 | 0.00 | 0.00 | 0.00 | 51 | 1005.6 |
| 20260503203557 | 11 | 252 | 3.2 | 9.7 | 0.00 | 0.00 | 0.00 | 53 | 1005.5 |
| 20260503202557 | 10 | 255 | 3.2 | 12.9 | 0.00 | 0.00 | 0.00 | 54 | 1005.8 |
| 20260503201557 | 10 | 293 | 3.2 | 9.7 | 0.00 | 0.00 | 0.00 | 54 | 1005.8 |
| 20260503200558 | 11 | 289 | 3.2 | 11.3 | 0.00 | 0.00 | 0.00 | 54 | 1006.1 |
| 20260503195557 | 11 | 288 | 3.2 | 11.3 | 0.00 | 0.00 | 0.00 | 56 | 1006.4 |
| 20260503194557 | 11 | 296 | 3.2 | 9.7 | 0.00 | 0.00 | 0.00 | 54 | 1006.4 |
| 20260503193558 | 10 | 285 | 3.2 | 9.7 | 0.00 | 0.00 | 0.00 | 60 | 1006.9 |
| 20260503192557 | 10 | 258 | 3.2 | 12.9 | 0.00 | 0.00 | 0.00 | 61 | 1007.1 |
| 20260503191557 | 9 | 253 | 4.8 | 12.9 | 0.00 | 0.00 | 0.00 | 63 | 1007.3 |
| 20260503190557 | 10 | 250 | 4.8 | 14.5 | 0.00 | 0.00 | 0.00 | 63 | 1007.3 |
| 20260503185557 | 10 | 249 | 4.8 | 19.3 | 0.00 | 0.00 | 0.00 | 63 | 1007.4 |
| 20260503184557 | 8 | 259 | 4.8 | 24.1 | 0.00 | 0.00 | 0.00 | 66 | 1007.4 |
| 20260503183557 | 9 | 276 | 4.8 | 19.3 | 0.00 | 0.00 | 0.00 | 65 | 1007.4 |
| 20260503182557 | 10 | 277 | 4.8 | 12.9 | 0.00 | 0.00 | 0.00 | 63 | 1007.5 |
| 20260503181557 | 11 | 278 | 4.8 | 17.7 | 0.00 | 0.00 | 0.00 | 62 | 1007.5 |
| 20260503180557 | 11 | 262 | 4.8 | 22.5 | 0.00 | 0.00 | 0.00 | 60 | 1007.5 |
| 20260503175557 | 11 | 257 | 4.8 | 16.1 | 0.00 | 0.00 | 0.00 | 61 | 1007.6 |
| 20260503174557 | 11 | 287 | 4.8 | 16.1 | 0.00 | 0.00 | 0.00 | 60 | 1007.5 |
| 20260503173557 | 11 | 296 | 3.2 | 14.5 | 0.00 | 0.00 | 0.00 | 62 | 1007.6 |
| 20260503172557 | 10 | 265 | 4.8 | 16.1 | 0.00 | 0.00 | 0.00 | 64 | 1008.1 |
| 20260503171557 | 10 | 257 | 4.8 | 19.3 | 0.00 | 0.00 | 0.00 | 63 | 1008.4 |
| 20260503170557 | 9 | 258 | 4.8 | 20.9 | 0.00 | 0.00 | 0.00 | 62 | 1008.4 |
| 20260503150558 | 8 | 259 | 4.8 | 17.7 | 0.00 | 0.00 | 0.00 | 58 | 1009.6 |
| 20260503130559 | 8 | 297 | 3.2 | 12.9 | 0.00 | 0.00 | 0.00 | 65 | 1010.2 |
| 20260503110557 | 0 | 62 | 3.2 | 8.0 | 0.00 | 0.00 | 0.00 | 91 | 1009.9 |
| 20260503081558 | 2 | 40 | 3.2 | 8.0 | 0.00 | 0.00 | 0.00 | 81 | 1009.8 |
| 20260503080558 | 2 | 25 | 3.2 | 9.7 | 0.00 | 0.00 | 0.00 | 78 | 1009.9 |
| 20260503072558 | 3 | 356 | 1.6 | 8.0 | 0.00 | 0.00 | 0.00 | 78 | 1009.9 |
| 20260503071559 | 3 | 340 | 3.2 | 11.3 | 0.00 | 0.00 | 0.00 | 77 | 1009.7 |
| 20260503070559 | 3 | 334 | 4.8 | 11.3 | 0.00 | 0.00 | 0.00 | 77 | 1009.9 |
| 20260503054558 | 5 | 323 | 6.4 | 14.5 | 0.00 | 0.00 | 0.00 | 75 | 1010.0 |
| 20260503053558 | 5 | 323 | 6.4 | 14.5 | 0.00 | 0.00 | 0.00 | 73 | 1009.9 |
| 20260503052558 | 5 | 328 | 4.8 | 11.3 | 0.00 | 0.00 | 0.00 | 75 | 1010.1 |
| 20260503051558 | 5 | 337 | 3.2 | 6.4 | 0.00 | 0.00 | 0.00 | 79 | 1010.1 |
| 20260503050558 | 5 | 335 | 3.2 | 9.7 | 0.00 | 0.00 | 0.00 | 83 | 1010.2 |
| 20260503045600 | 5 | 352 | 3.2 | 8.0 | 0.00 | 0.00 | 0.00 | 84 | 1010.3 |
| 20260503044559 | 5 | 339 | 3.2 | 9.7 | 0.00 | 0.00 | 0.00 | 84 | 1010.3 |
| 20260503043558 | 5 | 342 | 3.2 | 8.0 | 0.00 | 0.00 | 0.00 | 82 | 1010.3 |